Home > Weather > Whitehorse > Past weeks

Flag for Canada Past Weather in Whitehorse, Yukon, Canada — Yesterday and Last 2 Weeks

Now
55 °F

Passing clouds.


Feels Like: 55 °F
Forecast: 44 / 74 °F
Wind: No wind

Location: Whitehorse

Current Time: Jul 30, 2016 at 2:16:49 AM

Latest Report: Jul 30, 2016 at 1:00 AM


Visibility: 15 mi

Pressure: 30.06 "Hg (27.85 "Hg at 640m altitude)

Humidity: 72%

Dew Point: 46 °F

Location of WhitehorseLocation

Past Weather in Whitehorse — Graph

°F

Whitehorse Temperature Yesterday

Maximum temperature yesterday: 61 °F (at 6:00 PM)
Minimum temperature yesterday: 50 °F (at 5:00 AM)
Average temperature yesterday: 55 °F

High & Low Weather Summary for the Past Weeks

 TemperatureHumidityPressure
High79 °F (Jul 16, 4:00 PM)100% (Jul 15, 2:00 AM)30.34 "Hg (Jul 15, 2:00 AM)
Low50 °F (Jul 24, 8:00 AM)35% (Jul 28, 6:00 PM)29.59 "Hg (Jul 23, 5:00 PM)
Average59 °F68%29.99 "Hg
* Reported Jul 15 1:00 AM — Jul 30 1:00 AM, Whitehorse, Weather by CustomWeather, © 2016

Note: Actual official high and low records may vary slightly from our data, if they occured in-between our weather recording intervals... More about our weather records

Advertising

Whitehorse Weather History for the Previous 24 Hours

Scroll right to see more
 ConditionsComfort  
Time TempWeatherWind HumidityBarometerVisibility
1:00 AM
Sat, Jul 30
55 °FPassing clouds.No wind72%30.06 "Hg15 mi
12:00 AM57 °FPassing clouds.3 mph63%30.05 "Hg15 mi
11:00 PM
Fri, Jul 29
59 °FPartly sunny.7 mph63%30.05 "Hg40 mi
10:00 PM59 °FPartly sunny.5 mph63%30.04 "Hg40 mi
9:00 PM61 °FPartly sunny.7 mph59%30.03 "Hg40 mi
8:07 PM61 °FPartly sunny.6 mph59%30.04 "Hg40 mi
7:00 PM61 °FBroken clouds.7 mph59%30.05 "Hg40 mi
6:00 PM61 °FPartly sunny.5 mph59%30.05 "Hg40 mi
5:00 PM59 °FPartly sunny.2 mph63%30.06 "Hg40 mi
4:00 PM59 °FPartly sunny.2 mph59%30.07 "Hg40 mi
3:00 PM55 °FSprinkles. Partly sunny.3 mph72%30.08 "Hg30 mi
2:00 PM55 °FSprinkles. Overcast.2 mph72%30.08 "Hg30 mi
1:00 PM55 °FSprinkles. Overcast.No wind67%30.08 "Hg40 mi
12:52 PM54 °FSprinkles. Overcast.No wind67%30.08 "Hg40 mi
12:00 PM54 °FOvercast.5 mph72%30.08 "Hg40 mi
11:00 AM54 °FPartly sunny.2 mph67%30.08 "Hg40 mi
10:00 AM52 °FSprinkles. Partly sunny.2 mph77%30.08 "Hg30 mi
9:00 AM52 °FSprinkles. Overcast.2 mph67%30.08 "Hg30 mi
8:00 AM50 °FSprinkles. Overcast.3 mph76%30.07 "Hg40 mi
7:00 AM50 °FSprinkles. Partly sunny.3 mph71%30.05 "Hg40 mi
6:00 AM50 °FScattered showers. Mostly cloudy.3 mph71%30.04 "Hg40 mi
5:00 AM50 °FScattered showers. Mostly cloudy.No wind71%30.04 "Hg40 mi
4:00 AM52 °FOvercast.2 mph67%30.05 "Hg15 mi
3:00 AM54 °FPassing clouds.No wind63%30.04 "Hg15 mi
2:00 AM54 °FPassing clouds.3 mph58%30.04 "Hg15 mi
Weather by CustomWeather, © 2016

See weather overviewHow to use our weather pages